Terminal Aerodrome Forecast
Issued by NWS Louisville, KY

Home | Current Version | Previous Version | Text Only | Print | Product List | Glossary On
Versions: 1 2 3 4 5 6 7 8 9 10 11 12 13 14 15 16 17
000
FTUS43 KLMK 291100
TAFSDF
TAF
KSDF 291128Z 2912/3018 12004KT P6SM SCT250
     FM291500 17008KT P6SM BKN050
     FM300100 17004KT P6SM SCT250
     FM301500 21011KT P6SM SCT040 BKN250=

USA.gov is the U.S. government's official web portal to all federal, state and local government web resources and services.